IBET216 LEPP-GCRR

Flight info

Callsign IBET216
Flight time 2h 43m
Altitude 33000
Route NOLSA N10 BAN N857 HIJ N10 SVL N857 KORNO UN857 VEDOD
Aircraft B738/M-SDE2E3FGHIRWXY/LB1

Departure

Time 2026-04-16 05:48
Airport Pamplona Airport (LEPP)

Arrival

Time 2026-04-16 08:32
Airport César Manrique-Lanzarote Airport (GCRR)
Time Latitude Longitude Altitude Speed Heading
2026-04-16 05:33 42.76808 -1.64129 1481 ft 0 kts 355°
2026-04-16 05:37 42.76802 -1.64129 1482 ft 2 kts 11°
2026-04-16 05:37 42.76787 -1.64131 1482 ft 2 kts 351°
2026-04-16 05:37 42.76772 -1.64128 1482 ft 2 kts 357°
2026-04-16 05:37 42.76759 -1.64136 1482 ft 2 kts 56°
2026-04-16 05:38 42.76756 -1.64156 1483 ft 2 kts 111°
2026-04-16 05:38 42.76762 -1.64167 1482 ft 0 kts 148°
2026-04-16 05:38 42.76761 -1.64165 1482 ft 2 kts 138°
2026-04-16 05:38 42.76754 -1.64158 1483 ft 1 kts 148°
2026-04-16 05:39 42.76752 -1.64156 1483 ft 0 kts 148°
2026-04-16 05:42 42.76757 -1.64161 1482 ft 0 kts 148°
2026-04-16 05:42 42.76760 -1.64163 1482 ft 0 kts 148°
2026-04-16 05:43 42.76759 -1.64162 1482 ft 3 kts 148°
2026-04-16 05:43 42.76706 -1.64120 1484 ft 9 kts 158°
2026-04-16 05:43 42.76650 -1.64112 1485 ft 6 kts 176°
2026-04-16 05:43 42.76585 -1.64096 1486 ft 11 kts 178°
2026-04-16 05:44 42.76526 -1.64140 1485 ft 0 kts 237°
2026-04-16 05:44 42.76524 -1.64143 1485 ft 2 kts 237°
2026-04-16 05:45 42.76511 -1.64219 1482 ft 13 kts 280°
2026-04-16 05:45 42.76577 -1.64321 1480 ft 16 kts 331°
2026-04-16 05:45 42.76696 -1.64409 1480 ft 22 kts 331°
2026-04-16 05:45 42.76850 -1.64522 1477 ft 28 kts 331°
2026-04-16 05:46 42.77034 -1.64657 1474 ft 31 kts 332°
2026-04-16 05:46 42.77233 -1.64800 1467 ft 33 kts 332°
2026-04-16 05:46 42.77423 -1.64939 1460 ft 29 kts 332°
2026-04-16 05:46 42.77607 -1.65068 1451 ft 31 kts 330°
2026-04-16 05:47 42.77772 -1.65192 1441 ft 19 kts 332°
2026-04-16 05:47 42.77889 -1.65246 1435 ft 16 kts 358°
2026-04-16 05:47 42.77887 -1.65290 1433 ft 8 kts 150°
2026-04-16 05:47 42.77840 -1.65248 1436 ft 17 kts 147°
2026-04-16 05:48 42.77490 -1.64985 1458 ft 95 kts 151°
2026-04-16 05:48 42.76702 -1.64414 1482 ft 161 kts 151°
2026-04-16 05:48 42.75704 -1.63714 2002 ft 157 kts 153°
2026-04-16 05:48 42.74646 -1.63260 2529 ft 168 kts 178°
2026-04-16 05:49 42.73454 -1.63394 3105 ft 177 kts 185°
2026-04-16 05:49 42.72227 -1.63673 3539 ft 188 kts 193°
2026-04-16 05:49 42.70966 -1.64282 4011 ft 197 kts 206°
2026-04-16 05:49 42.69742 -1.65217 4476 ft 207 kts 212°
2026-04-16 05:50 42.68477 -1.66317 4756 ft 229 kts 212°
2026-04-16 05:50 42.67083 -1.67472 5285 ft 241 kts 211°
2026-04-16 05:50 42.65664 -1.68637 6075 ft 241 kts 212°
2026-04-16 05:50 42.64236 -1.69833 6797 ft 243 kts 214°
2026-04-16 05:51 42.62819 -1.71165 7296 ft 255 kts 217°
2026-04-16 05:51 42.61356 -1.72623 7678 ft 268 kts 217°
2026-04-16 05:51 42.59829 -1.74145 8220 ft 278 kts 217°
2026-04-16 05:51 42.58257 -1.75693 8879 ft 283 kts 217°
2026-04-16 05:52 42.56656 -1.77255 9577 ft 287 kts 218°
2026-04-16 05:52 42.55035 -1.78830 10312 ft 289 kts 218°
2026-04-16 05:52 42.53381 -1.80437 10820 ft 300 kts 218°
2026-04-16 05:52 42.51657 -1.82114 11344 ft 309 kts 218°
2026-04-16 05:53 42.49897 -1.83821 11959 ft 314 kts 218°
2026-04-16 05:53 42.48103 -1.85559 12628 ft 318 kts 218°
2026-04-16 05:53 42.46322 -1.87284 13277 ft 322 kts 219°
2026-04-16 05:53 42.44501 -1.89046 13942 ft 325 kts 219°
2026-04-16 05:54 42.42619 -1.90801 14578 ft 329 kts 215°
2026-04-16 05:54 42.40623 -1.92328 15200 ft 334 kts 211°
2026-04-16 05:54 42.38541 -1.93721 15807 ft 338 kts 209°
2026-04-16 05:54 42.36396 -1.95090 16403 ft 342 kts 209°
2026-04-16 05:55 42.34249 -1.96461 16974 ft 345 kts 209°
2026-04-16 05:55 42.32071 -1.97872 17547 ft 348 kts 209°
2026-04-16 05:55 42.29895 -1.99303 18093 ft 352 kts 210°
2026-04-16 05:55 42.27685 -2.00768 18657 ft 355 kts 210°
2026-04-16 05:56 42.25473 -2.02238 19221 ft 358 kts 210°
2026-04-16 05:56 42.23222 -2.03730 19745 ft 361 kts 210°
2026-04-16 05:56 42.20986 -2.05208 20291 ft 364 kts 210°
2026-04-16 05:56 42.18694 -2.06721 20810 ft 367 kts 210°
2026-04-16 05:57 42.16391 -2.08240 21337 ft 369 kts 210°
2026-04-16 05:57 42.14106 -2.09748 21815 ft 372 kts 210°
2026-04-16 05:57 42.11756 -2.11299 22286 ft 376 kts 210°
2026-04-16 05:57 42.09421 -2.12839 22772 ft 378 kts 210°
2026-04-16 05:58 42.07064 -2.14392 23221 ft 381 kts 210°
2026-04-16 05:58 42.04664 -2.15973 23709 ft 383 kts 210°
2026-04-16 05:58 42.02276 -2.17543 24155 ft 385 kts 210°
2026-04-16 05:58 41.99856 -2.19133 24623 ft 387 kts 210°
2026-04-16 05:59 41.97448 -2.20714 25052 ft 390 kts 210°
2026-04-16 05:59 41.94995 -2.22324 25462 ft 393 kts 210°
2026-04-16 05:59 41.92559 -2.23922 25899 ft 395 kts 209°
2026-04-16 05:59 41.90063 -2.25559 26288 ft 398 kts 209°
2026-04-16 06:00 41.87598 -2.27172 26706 ft 399 kts 209°
2026-04-16 06:00 41.85084 -2.28817 27080 ft 402 kts 209°
2026-04-16 06:00 41.82560 -2.30466 27438 ft 405 kts 209°
2026-04-16 06:00 41.80007 -2.32133 27805 ft 407 kts 209°
2026-04-16 06:01 41.77491 -2.33772 28181 ft 409 kts 209°
2026-04-16 06:01 41.74915 -2.35450 28537 ft 411 kts 209°
2026-04-16 06:01 41.72333 -2.37130 28890 ft 414 kts 209°
2026-04-16 06:01 41.69722 -2.38829 29222 ft 416 kts 209°
2026-04-16 06:02 41.64497 -2.42223 29926 ft 419 kts 209°
2026-04-16 06:02 41.61871 -2.43925 30285 ft 421 kts 209°
2026-04-16 06:02 41.59189 -2.45662 30571 ft 423 kts 209°
2026-04-16 06:03 41.56559 -2.47365 30919 ft 424 kts 209°
2026-04-16 06:03 41.53900 -2.49085 31200 ft 427 kts 208°
2026-04-16 06:03 41.51209 -2.50824 31486 ft 429 kts 208°
2026-04-16 06:03 41.48539 -2.52547 31781 ft 431 kts 208°
2026-04-16 06:04 41.45828 -2.54295 32093 ft 432 kts 208°
2026-04-16 06:04 41.43129 -2.56033 32345 ft 434 kts 208°
2026-04-16 06:04 41.40380 -2.57803 32638 ft 436 kts 208°
2026-04-16 06:04 41.37656 -2.59555 32904 ft 437 kts 208°
2026-04-16 06:05 41.34917 -2.61317 33136 ft 440 kts 209°
2026-04-16 06:05 41.32218 -2.63172 33241 ft 442 kts 212°
2026-04-16 06:05 41.27051 -2.67526 33240 ft 437 kts 217°
2026-04-16 06:06 41.22078 -2.72172 33236 ft 437 kts 218°
2026-04-16 06:06 41.17136 -2.76828 33230 ft 437 kts 217°
2026-04-16 06:07 41.12178 -2.81449 33227 ft 438 kts 217°
2026-04-16 06:07 41.07164 -2.86075 33214 ft 438 kts 217°
2026-04-16 06:08 41.02163 -2.90657 33207 ft 437 kts 217°
2026-04-16 06:08 40.97181 -2.95205 33212 ft 438 kts 217°
2026-04-16 06:09 40.92137 -2.99797 33211 ft 437 kts 217°
2026-04-16 06:09 40.87152 -3.04326 33209 ft 436 kts 217°
2026-04-16 06:10 40.82148 -3.08865 33220 ft 436 kts 217°
2026-04-16 06:10 40.77162 -3.13377 33231 ft 436 kts 217°
2026-04-16 06:11 40.72144 -3.17911 33227 ft 437 kts 217°
2026-04-16 06:11 40.67159 -3.22407 33228 ft 436 kts 217°
2026-04-16 06:12 40.62146 -3.26919 33212 ft 435 kts 217°
2026-04-16 06:12 40.57147 -3.31409 33196 ft 436 kts 217°
2026-04-16 06:13 40.52178 -3.35865 33197 ft 435 kts 218°
2026-04-16 06:13 40.47197 -3.40324 33198 ft 432 kts 218°
2026-04-16 06:14 40.42232 -3.44760 33199 ft 432 kts 218°
2026-04-16 06:14 40.37283 -3.49175 33200 ft 432 kts 218°
2026-04-16 06:15 40.32299 -3.53612 33202 ft 431 kts 218°
2026-04-16 06:15 40.27359 -3.58004 33203 ft 432 kts 218°
2026-04-16 06:16 40.22398 -3.62405 33202 ft 431 kts 218°
2026-04-16 06:16 40.17408 -3.66822 33199 ft 431 kts 217°
2026-04-16 06:17 40.12484 -3.71176 33211 ft 430 kts 217°
2026-04-16 06:17 40.07507 -3.75567 33211 ft 430 kts 217°
2026-04-16 06:18 40.02563 -3.79919 33210 ft 429 kts 217°
2026-04-16 06:18 39.97651 -3.84237 33211 ft 428 kts 217°
2026-04-16 06:19 39.92698 -3.88584 33209 ft 428 kts 217°
2026-04-16 06:19 39.87787 -3.92887 33208 ft 427 kts 218°
2026-04-16 06:20 39.82865 -3.97193 33209 ft 428 kts 217°
2026-04-16 06:20 39.77899 -4.01529 33213 ft 429 kts 218°
2026-04-16 06:21 39.72973 -4.05821 33217 ft 428 kts 218°
2026-04-16 06:21 39.68029 -4.10122 33213 ft 428 kts 218°
2026-04-16 06:22 39.63077 -4.14421 33214 ft 428 kts 218°
2026-04-16 06:22 39.58159 -4.18684 33222 ft 428 kts 218°
2026-04-16 06:23 39.53205 -4.22971 33214 ft 427 kts 218°
2026-04-16 06:23 39.48295 -4.27213 33210 ft 427 kts 218°
2026-04-16 06:24 39.43359 -4.31469 33216 ft 427 kts 218°
2026-04-16 06:24 39.38406 -4.35732 33207 ft 426 kts 218°
2026-04-16 06:25 39.33468 -4.39977 33206 ft 426 kts 218°
2026-04-16 06:25 39.28567 -4.44182 33214 ft 425 kts 218°
2026-04-16 06:26 39.23622 -4.48418 33208 ft 425 kts 218°
2026-04-16 06:26 39.18728 -4.52603 33209 ft 426 kts 218°
2026-04-16 06:27 39.13797 -4.56812 33208 ft 425 kts 218°
2026-04-16 06:27 39.08860 -4.61019 33202 ft 426 kts 218°
2026-04-16 06:28 39.03902 -4.65236 33203 ft 426 kts 218°
2026-04-16 06:28 38.98983 -4.69413 33205 ft 425 kts 218°
2026-04-16 06:29 38.94053 -4.73592 33202 ft 425 kts 218°
2026-04-16 06:29 38.89110 -4.77776 33198 ft 425 kts 218°
2026-04-16 06:30 38.84188 -4.81932 33204 ft 425 kts 218°
2026-04-16 06:30 38.79222 -4.86120 33205 ft 427 kts 218°
2026-04-16 06:31 38.74271 -4.90288 33196 ft 425 kts 218°
2026-04-16 06:31 38.69332 -4.94439 33195 ft 426 kts 217°
2026-04-16 06:32 38.64373 -4.98599 33195 ft 426 kts 217°
2026-04-16 06:32 38.59408 -5.02758 33191 ft 427 kts 217°
2026-04-16 06:33 38.54434 -5.06918 33196 ft 428 kts 217°
2026-04-16 06:33 38.49416 -5.10951 33195 ft 430 kts 213°
2026-04-16 06:34 38.44092 -5.14410 33196 ft 431 kts 210°
2026-04-16 06:34 38.38652 -5.17679 33198 ft 432 kts 209°
2026-04-16 06:35 38.33249 -5.20937 33198 ft 432 kts 210°
2026-04-16 06:35 38.27845 -5.24235 33194 ft 432 kts 210°
2026-04-16 06:36 38.22432 -5.27566 33196 ft 432 kts 210°
2026-04-16 06:36 38.17040 -5.30889 33195 ft 431 kts 210°
2026-04-16 06:37 38.11619 -5.34229 33196 ft 432 kts 210°
2026-04-16 06:37 38.06220 -5.37551 33192 ft 432 kts 210°
2026-04-16 06:38 38.00809 -5.40876 33191 ft 432 kts 210°
2026-04-16 06:38 37.95410 -5.44186 33193 ft 431 kts 210°
2026-04-16 06:39 37.90041 -5.47474 33189 ft 431 kts 209°
2026-04-16 06:39 37.84618 -5.50789 33189 ft 431 kts 210°
2026-04-16 06:40 37.79236 -5.54075 33178 ft 430 kts 209°
2026-04-16 06:40 37.73869 -5.57345 33178 ft 430 kts 209°
2026-04-16 06:41 37.68471 -5.60628 33173 ft 429 kts 209°
2026-04-16 06:41 37.63092 -5.63896 33166 ft 430 kts 210°
2026-04-16 06:42 37.57710 -5.67161 33161 ft 430 kts 208°
2026-04-16 06:42 37.52300 -5.70436 33157 ft 430 kts 208°
2026-04-16 06:43 37.46904 -5.73698 33158 ft 429 kts 209°
2026-04-16 06:43 37.41801 -5.77391 33152 ft 425 kts 218°
2026-04-16 06:44 37.37132 -5.81955 33152 ft 423 kts 223°
2026-04-16 06:44 37.32663 -5.86755 33149 ft 423 kts 223°
2026-04-16 06:45 37.28215 -5.91573 33148 ft 423 kts 223°
2026-04-16 06:45 37.23747 -5.96370 33146 ft 423 kts 223°
2026-04-16 06:46 37.19265 -6.01145 33150 ft 422 kts 223°
2026-04-16 06:46 37.14790 -6.05887 33147 ft 423 kts 223°
2026-04-16 06:47 37.10287 -6.10646 33142 ft 422 kts 223°
2026-04-16 06:47 37.05809 -6.15367 33138 ft 421 kts 223°
2026-04-16 06:48 37.01328 -6.20085 33138 ft 422 kts 223°
2026-04-16 06:48 36.96843 -6.24797 33137 ft 422 kts 223°
2026-04-16 06:49 36.92373 -6.29487 33137 ft 422 kts 223°
2026-04-16 06:49 36.87884 -6.34190 33136 ft 422 kts 222°
2026-04-16 06:50 36.83391 -6.38889 33134 ft 421 kts 222°
2026-04-16 06:50 36.78898 -6.43580 33134 ft 422 kts 222°
2026-04-16 06:51 36.74390 -6.48280 33132 ft 421 kts 222°
2026-04-16 06:51 36.69917 -6.52936 33132 ft 422 kts 222°
2026-04-16 06:52 36.65410 -6.57619 33131 ft 421 kts 222°
2026-04-16 06:52 36.60900 -6.62299 33129 ft 422 kts 222°
2026-04-16 06:53 36.56411 -6.66949 33127 ft 421 kts 221°
2026-04-16 06:53 36.51907 -6.71608 33126 ft 423 kts 221°
2026-04-16 06:54 36.47365 -6.76298 33120 ft 423 kts 221°
2026-04-16 06:54 36.42858 -6.80943 33123 ft 423 kts 221°
2026-04-16 06:55 36.38344 -6.85588 33118 ft 423 kts 221°
2026-04-16 06:55 36.33815 -6.90242 33118 ft 423 kts 220°
2026-04-16 06:56 36.29287 -6.94887 33117 ft 423 kts 220°
2026-04-16 06:56 36.24769 -6.99515 33117 ft 422 kts 220°
2026-04-16 06:57 36.20241 -7.04146 33115 ft 423 kts 220°
2026-04-16 06:57 36.15680 -7.08803 33114 ft 424 kts 220°
2026-04-16 06:58 36.11138 -7.13434 33117 ft 425 kts 220°
2026-04-16 06:58 36.06594 -7.18060 33116 ft 424 kts 220°
2026-04-16 06:59 36.02038 -7.22691 33120 ft 424 kts 220°
2026-04-16 06:59 35.97480 -7.27316 33119 ft 424 kts 220°
2026-04-16 07:00 35.92938 -7.31919 33118 ft 424 kts 220°
2026-04-16 07:01 35.86102 -7.38832 33119 ft 424 kts 220°
2026-04-16 07:01 35.81517 -7.43460 33115 ft 425 kts 220°
2026-04-16 07:02 35.76978 -7.48035 33121 ft 424 kts 220°
2026-04-16 07:02 35.72409 -7.52634 33121 ft 425 kts 220°
2026-04-16 07:03 35.67825 -7.57242 33121 ft 425 kts 220°
2026-04-16 07:03 35.63252 -7.61831 33120 ft 424 kts 220°
2026-04-16 07:04 35.58690 -7.66403 33119 ft 422 kts 219°
2026-04-16 07:04 35.54127 -7.70970 33119 ft 423 kts 219°
2026-04-16 07:05 35.49573 -7.75521 33119 ft 423 kts 219°
2026-04-16 07:05 35.45011 -7.80071 33121 ft 424 kts 219°
2026-04-16 07:06 35.40435 -7.84629 33120 ft 423 kts 219°
2026-04-16 07:06 35.35854 -7.89185 33118 ft 424 kts 219°
2026-04-16 07:07 35.31281 -7.93726 33114 ft 424 kts 218°
2026-04-16 07:07 35.26701 -7.98268 33119 ft 424 kts 218°
2026-04-16 07:08 35.22123 -8.02800 33117 ft 424 kts 218°
2026-04-16 07:08 35.17538 -8.07333 33119 ft 424 kts 218°
2026-04-16 07:09 35.12942 -8.11870 33114 ft 425 kts 218°
2026-04-16 07:09 35.08358 -8.16389 33115 ft 426 kts 218°
2026-04-16 07:10 35.03731 -8.20942 33116 ft 426 kts 218°
2026-04-16 07:10 34.99147 -8.25446 33116 ft 426 kts 218°
2026-04-16 07:11 34.94554 -8.29954 33115 ft 425 kts 218°
2026-04-16 07:11 34.89951 -8.34465 33116 ft 426 kts 218°
2026-04-16 07:12 34.85319 -8.38995 33116 ft 425 kts 218°
2026-04-16 07:12 34.80697 -8.43510 33119 ft 426 kts 218°
2026-04-16 07:13 34.76085 -8.48009 33115 ft 426 kts 218°
2026-04-16 07:13 34.71460 -8.52513 33117 ft 426 kts 218°
2026-04-16 07:14 34.66865 -8.56982 33117 ft 426 kts 218°
2026-04-16 07:14 34.62246 -8.61469 33120 ft 426 kts 218°
2026-04-16 07:15 34.57603 -8.65972 33115 ft 425 kts 217°
2026-04-16 07:15 34.53021 -8.70408 33113 ft 425 kts 217°
2026-04-16 07:16 34.48394 -8.74881 33116 ft 425 kts 217°
2026-04-16 07:16 34.43771 -8.79344 33115 ft 425 kts 217°
2026-04-16 07:17 34.39151 -8.83798 33117 ft 426 kts 217°
2026-04-16 07:17 34.34526 -8.88250 33117 ft 425 kts 217°
2026-04-16 07:18 34.29884 -8.92711 33116 ft 426 kts 217°
2026-04-16 07:18 34.25236 -8.97172 33115 ft 426 kts 217°
2026-04-16 07:19 34.20624 -9.01591 33119 ft 426 kts 217°
2026-04-16 07:19 34.15973 -9.06043 33117 ft 426 kts 216°
2026-04-16 07:20 34.11342 -9.10470 33115 ft 426 kts 216°
2026-04-16 07:20 34.06703 -9.14896 33115 ft 425 kts 216°
2026-04-16 07:21 34.02073 -9.19308 33110 ft 425 kts 216°
2026-04-16 07:21 33.97458 -9.23700 33109 ft 425 kts 216°
2026-04-16 07:22 33.92800 -9.28125 33110 ft 426 kts 216°
2026-04-16 07:22 33.88131 -9.32554 33105 ft 426 kts 216°
2026-04-16 07:23 33.83502 -9.36939 33104 ft 426 kts 216°
2026-04-16 07:23 33.78832 -9.41358 33103 ft 425 kts 216°
2026-04-16 07:24 33.74193 -9.45741 33107 ft 426 kts 216°
2026-04-16 07:24 33.69553 -9.50119 33096 ft 425 kts 216°
2026-04-16 07:25 33.64899 -9.54503 33100 ft 425 kts 216°
2026-04-16 07:25 33.60242 -9.58883 33096 ft 426 kts 216°
2026-04-16 07:26 33.55573 -9.63269 33097 ft 426 kts 216°
2026-04-16 07:26 33.50915 -9.67638 33099 ft 426 kts 216°
2026-04-16 07:27 33.46252 -9.72006 33092 ft 426 kts 216°
2026-04-16 07:27 33.41576 -9.76380 33085 ft 426 kts 216°
2026-04-16 07:28 33.36926 -9.80723 33089 ft 425 kts 216°
2026-04-16 07:28 33.32274 -9.85064 33085 ft 426 kts 216°
2026-04-16 07:29 33.27583 -9.89434 33088 ft 426 kts 216°
2026-04-16 07:29 33.22916 -9.93775 33090 ft 426 kts 216°
2026-04-16 07:30 33.18275 -9.98087 33096 ft 424 kts 216°
2026-04-16 07:30 33.13593 -10.02430 33092 ft 425 kts 216°
2026-04-16 07:31 33.08945 -10.06734 33092 ft 425 kts 216°
2026-04-16 07:31 33.04283 -10.11047 33093 ft 423 kts 216°
2026-04-16 07:32 32.99656 -10.15323 33095 ft 423 kts 216°
2026-04-16 07:32 32.94995 -10.19621 33091 ft 425 kts 216°
2026-04-16 07:33 32.90329 -10.23919 33091 ft 425 kts 216°
2026-04-16 07:33 32.85651 -10.28223 33093 ft 425 kts 216°
2026-04-16 07:34 32.80956 -10.32537 33088 ft 424 kts 216°
2026-04-16 07:34 32.76314 -10.36795 33089 ft 424 kts 216°
2026-04-16 07:35 32.71642 -10.41076 33089 ft 424 kts 216°
2026-04-16 07:35 32.66996 -10.45327 33087 ft 423 kts 216°
2026-04-16 07:36 32.62326 -10.49594 33085 ft 424 kts 216°
2026-04-16 07:36 32.57637 -10.53873 33084 ft 424 kts 216°
2026-04-16 07:37 32.52970 -10.58123 33078 ft 424 kts 216°
2026-04-16 07:37 32.48304 -10.62370 33081 ft 423 kts 216°
2026-04-16 07:38 32.43627 -10.66621 33084 ft 423 kts 216°
2026-04-16 07:38 32.38984 -10.70835 33084 ft 423 kts 216°
2026-04-16 07:39 32.34312 -10.75070 33080 ft 423 kts 216°
2026-04-16 07:39 32.29639 -10.79301 33075 ft 423 kts 216°
2026-04-16 07:40 32.24950 -10.83539 33077 ft 424 kts 216°
2026-04-16 07:40 32.20280 -10.87754 33073 ft 423 kts 216°
2026-04-16 07:41 32.15622 -10.91954 33078 ft 423 kts 216°
2026-04-16 07:41 32.10922 -10.96185 33072 ft 423 kts 216°
2026-04-16 07:42 32.06259 -11.00378 33078 ft 422 kts 216°
2026-04-16 07:42 32.01605 -11.04557 33071 ft 423 kts 216°
2026-04-16 07:43 31.96930 -11.08749 33069 ft 423 kts 216°
2026-04-16 07:43 31.92234 -11.12955 33067 ft 422 kts 216°
2026-04-16 07:44 31.87579 -11.17118 33067 ft 422 kts 216°
2026-04-16 07:44 31.82882 -11.21314 33066 ft 422 kts 216°
2026-04-16 07:45 31.78229 -11.25464 33063 ft 421 kts 216°
2026-04-16 07:45 31.73538 -11.29644 33068 ft 422 kts 216°
2026-04-16 07:46 31.68878 -11.33790 33060 ft 421 kts 216°
2026-04-16 07:46 31.64223 -11.37927 33063 ft 421 kts 216°
2026-04-16 07:47 31.59555 -11.42070 33063 ft 420 kts 216°
2026-04-16 07:47 31.54876 -11.46217 33061 ft 421 kts 216°
2026-04-16 07:48 31.50218 -11.50341 33059 ft 420 kts 217°
2026-04-16 07:48 31.45544 -11.54472 33055 ft 421 kts 217°
2026-04-16 07:49 31.40900 -11.58572 33056 ft 421 kts 217°
2026-04-16 07:49 31.36239 -11.62682 33054 ft 420 kts 217°
2026-04-16 07:50 31.31554 -11.66808 33057 ft 419 kts 216°
2026-04-16 07:50 31.26907 -11.70895 33054 ft 419 kts 216°
2026-04-16 07:51 31.22274 -11.74964 33053 ft 419 kts 216°
2026-04-16 07:51 31.17588 -11.79075 33050 ft 418 kts 216°
2026-04-16 07:52 31.12948 -11.83141 33053 ft 418 kts 216°
2026-04-16 07:52 31.08306 -11.87204 33049 ft 420 kts 217°
2026-04-16 07:53 31.03632 -11.91288 33049 ft 418 kts 217°
2026-04-16 07:53 30.98970 -11.95357 33048 ft 417 kts 217°
2026-04-16 07:54 30.94363 -11.99374 33048 ft 417 kts 217°
2026-04-16 07:54 30.89716 -12.03421 33050 ft 417 kts 217°
2026-04-16 07:55 30.85064 -12.07466 33049 ft 416 kts 217°
2026-04-16 07:55 30.80422 -12.11498 33051 ft 418 kts 217°
2026-04-16 07:56 30.75760 -12.15542 33052 ft 416 kts 217°
2026-04-16 07:56 30.71136 -12.19548 33052 ft 417 kts 217°
2026-04-16 07:57 30.66497 -12.23564 33050 ft 416 kts 217°
2026-04-16 07:57 30.61865 -12.27567 33051 ft 415 kts 217°
2026-04-16 07:58 30.57221 -12.31575 33049 ft 415 kts 217°
2026-04-16 07:58 30.52541 -12.35501 33052 ft 416 kts 214°
2026-04-16 07:59 30.47293 -12.38357 33054 ft 418 kts 199°
2026-04-16 07:59 30.41660 -12.40059 33053 ft 419 kts 194°
2026-04-16 08:00 30.35964 -12.41529 33051 ft 419 kts 194°
2026-04-16 08:00 30.30292 -12.43009 33049 ft 420 kts 194°
2026-04-16 08:01 30.24610 -12.44538 33053 ft 419 kts 195°
2026-04-16 08:01 30.18923 -12.46092 33054 ft 419 kts 195°
2026-04-16 08:02 30.13276 -12.47645 33049 ft 419 kts 195°
2026-04-16 08:02 30.04759 -12.49991 33045 ft 419 kts 195°
2026-04-16 08:03 29.99056 -12.51561 33048 ft 419 kts 195°
2026-04-16 08:03 29.93393 -12.53118 33049 ft 421 kts 195°
2026-04-16 08:04 29.87675 -12.54687 33048 ft 420 kts 195°
2026-04-16 08:04 29.81990 -12.56245 33047 ft 421 kts 195°
2026-04-16 08:05 29.76277 -12.57809 33048 ft 420 kts 196°
2026-04-16 08:05 29.70614 -12.59358 33047 ft 420 kts 196°
2026-04-16 08:06 29.64901 -12.60917 33048 ft 420 kts 196°
2026-04-16 08:06 29.62072 -12.61688 32919 ft 414 kts 196°
2026-04-16 08:06 29.59292 -12.62445 32617 ft 408 kts 196°
2026-04-16 08:07 29.56541 -12.63195 32181 ft 405 kts 195°
2026-04-16 08:07 29.53834 -12.63934 31692 ft 404 kts 195°
2026-04-16 08:07 29.51079 -12.64686 31190 ft 403 kts 195°
2026-04-16 08:07 29.48351 -12.65430 30706 ft 402 kts 194°
2026-04-16 08:08 29.45638 -12.66169 30191 ft 401 kts 194°
2026-04-16 08:08 29.42928 -12.66906 29608 ft 399 kts 194°
2026-04-16 08:08 29.40239 -12.67635 29106 ft 396 kts 194°
2026-04-16 08:08 29.37569 -12.68360 28606 ft 392 kts 194°
2026-04-16 08:09 29.34961 -12.69067 28130 ft 388 kts 194°
2026-04-16 08:09 29.32340 -12.69789 27666 ft 384 kts 195°
2026-04-16 08:09 29.29845 -12.70725 27480 ft 372 kts 203°
2026-04-16 08:09 29.27565 -12.72121 27052 ft 368 kts 215°
2026-04-16 08:10 29.25628 -12.73969 26563 ft 366 kts 225°
2026-04-16 08:10 29.23957 -12.76189 26026 ft 365 kts 232°
2026-04-16 08:10 29.22570 -12.78604 25589 ft 362 kts 240°
2026-04-16 08:10 29.21480 -12.81159 25092 ft 360 kts 245°
2026-04-16 08:11 29.20556 -12.83800 24631 ft 358 kts 248°
2026-04-16 08:11 29.19694 -12.86481 24141 ft 356 kts 249°
2026-04-16 08:11 29.18864 -12.89108 23655 ft 354 kts 249°
2026-04-16 08:11 29.18013 -12.91770 23143 ft 353 kts 248°
2026-04-16 08:12 29.17169 -12.94364 22739 ft 349 kts 248°
2026-04-16 08:12 29.16320 -12.96936 22286 ft 346 kts 248°
2026-04-16 08:12 29.15461 -12.99515 21815 ft 344 kts 248°
2026-04-16 08:12 29.14616 -13.02030 21401 ft 341 kts 248°
2026-04-16 08:13 29.13763 -13.04563 20944 ft 339 kts 247°
2026-04-16 08:13 29.12925 -13.07043 20564 ft 334 kts 247°
2026-04-16 08:13 29.12085 -13.09524 20114 ft 332 kts 247°
2026-04-16 08:13 29.11256 -13.11971 19714 ft 329 kts 247°
2026-04-16 08:14 29.10436 -13.14388 19277 ft 327 kts 247°
2026-04-16 08:14 29.09625 -13.16777 18877 ft 323 kts 247°
2026-04-16 08:14 29.08820 -13.19150 18464 ft 320 kts 247°
2026-04-16 08:14 29.08013 -13.21532 18010 ft 319 kts 247°
2026-04-16 08:15 29.07222 -13.23864 17589 ft 316 kts 247°
2026-04-16 08:15 29.06431 -13.26189 17104 ft 316 kts 247°
2026-04-16 08:15 29.05637 -13.28519 16688 ft 314 kts 247°
2026-04-16 08:15 29.04839 -13.30855 16247 ft 312 kts 247°
2026-04-16 08:16 29.04054 -13.33154 15809 ft 311 kts 248°
2026-04-16 08:16 29.03272 -13.35443 15402 ft 308 kts 247°
2026-04-16 08:16 29.02499 -13.37708 15000 ft 306 kts 248°
2026-04-16 08:16 29.01734 -13.39944 14568 ft 305 kts 248°
2026-04-16 08:17 29.00965 -13.42194 14174 ft 303 kts 248°
2026-04-16 08:17 29.00200 -13.44430 13782 ft 300 kts 248°
2026-04-16 08:17 28.99447 -13.46628 13316 ft 301 kts 248°
2026-04-16 08:17 28.98686 -13.48844 12838 ft 302 kts 248°
2026-04-16 08:18 28.97916 -13.51090 12429 ft 300 kts 248°
2026-04-16 08:19 28.86854 -13.54973 10028 ft 278 kts 151°
2026-04-16 08:20 28.85234 -13.53837 9742 ft 274 kts 152°
2026-04-16 08:20 28.83607 -13.52725 9373 ft 273 kts 153°
2026-04-16 08:20 28.81960 -13.51626 9029 ft 271 kts 153°
2026-04-16 08:20 28.80350 -13.50562 8695 ft 269 kts 153°
2026-04-16 08:21 28.78734 -13.49496 8359 ft 267 kts 153°
2026-04-16 08:21 28.77123 -13.48434 8025 ft 265 kts 153°
2026-04-16 08:21 28.75530 -13.47383 7690 ft 263 kts 153°
2026-04-16 08:21 28.73950 -13.46341 7362 ft 261 kts 153°
2026-04-16 08:22 28.72383 -13.45319 7078 ft 257 kts 155°
2026-04-16 08:22 28.70757 -13.44589 6963 ft 242 kts 173°
2026-04-16 08:22 28.69137 -13.44701 6807 ft 235 kts 200°
2026-04-16 08:22 28.67742 -13.45621 6452 ft 232 kts 221°
2026-04-16 08:23 28.66705 -13.46990 6118 ft 225 kts 237°
2026-04-16 08:23 28.66139 -13.48621 5856 ft 219 kts 260°
2026-04-16 08:23 28.66223 -13.50326 5611 ft 215 kts 281°
2026-04-16 08:23 28.66745 -13.51899 5368 ft 215 kts 298°
2026-04-16 08:24 28.67725 -13.53183 5134 ft 220 kts 323°
2026-04-16 08:24 28.69136 -13.53905 4872 ft 222 kts 342°
2026-04-16 08:24 28.70559 -13.54495 4610 ft 219 kts 329°
2026-04-16 08:24 28.71698 -13.55625 4359 ft 214 kts 306°
2026-04-16 08:25 28.72473 -13.57039 4113 ft 208 kts 294°
2026-04-16 08:25 28.73009 -13.58534 3858 ft 200 kts 288°
2026-04-16 08:25 28.73423 -13.60017 3639 ft 192 kts 286°
2026-04-16 08:25 28.73800 -13.61453 3427 ft 189 kts 287°
2026-04-16 08:26 28.74178 -13.62887 3213 ft 190 kts 287°
2026-04-16 08:26 28.74562 -13.64332 3095 ft 187 kts 288°
2026-04-16 08:26 28.74940 -13.65747 3063 ft 189 kts 287°
2026-04-16 08:26 28.75450 -13.67131 2971 ft 190 kts 306°
2026-04-16 08:27 28.76416 -13.68093 2911 ft 183 kts 331°
2026-04-16 08:27 28.77534 -13.68821 2860 ft 185 kts 335°
2026-04-16 08:27 28.78738 -13.69284 2796 ft 179 kts
2026-04-16 08:27 28.79936 -13.68955 2671 ft 178 kts 28°
2026-04-16 08:28 28.81006 -13.68320 2477 ft 168 kts 30°
2026-04-16 08:28 28.82023 -13.67730 2317 ft 163 kts 28°
2026-04-16 08:28 28.83035 -13.67154 2175 ft 162 kts 29°
2026-04-16 08:28 28.84050 -13.66569 2037 ft 163 kts 29°
2026-04-16 08:29 28.85045 -13.65996 1771 ft 156 kts 28°
2026-04-16 08:29 28.85992 -13.65452 1548 ft 150 kts 29°
2026-04-16 08:29 28.86925 -13.64913 1524 ft 150 kts 28°
2026-04-16 08:29 28.87857 -13.64376 1348 ft 152 kts 27°
2026-04-16 08:30 28.88784 -13.63843 1116 ft 147 kts 27°
2026-04-16 08:30 28.89712 -13.63306 930 ft 150 kts 27°
2026-04-16 08:30 28.90639 -13.62776 728 ft 148 kts 27°
2026-04-16 08:30 28.91561 -13.62228 493 ft 151 kts 26°
2026-04-16 08:31 28.92513 -13.61735 314 ft 148 kts 21°
2026-04-16 08:31 28.93421 -13.61191 168 ft 144 kts 28°
2026-04-16 08:31 28.94264 -13.60681 50 ft 125 kts 25°
2026-04-16 08:31 28.94838 -13.60360 55 ft 57 kts 22°
2026-04-16 08:32 28.95063 -13.60241 59 ft 31 kts 18°
2026-04-16 08:32 28.95220 -13.60209 64 ft 18 kts
2026-04-16 08:32 28.95320 -13.60243 68 ft 13 kts 303°
2026-04-16 08:32 28.95293 -13.60313 72 ft 11 kts 217°
2026-04-16 08:33 28.95190 -13.60375 73 ft 14 kts 206°
2026-04-16 08:33 28.95128 -13.60455 73 ft 13 kts 252°
2026-04-16 08:33 28.95110 -13.60537 77 ft 7 kts 245°
2026-04-16 08:33 28.95088 -13.60573 78 ft 4 kts 234°
2026-04-16 08:34 28.95069 -13.60620 80 ft 5 kts 257°
2026-04-16 08:34 28.95068 -13.60637 81 ft 0 kts 278°
2026-04-16 08:34 28.95074 -13.60662 83 ft 6 kts 288°
2026-04-16 08:34 28.95083 -13.60688 84 ft 0 kts 295°
2026-04-16 08:35 28.95090 -13.60703 85 ft 0 kts 296°